San Diego Classic - Holiday Cup - Inventory

Station: INVENTORY - T Race

Distance: 10 Miles    

Release: 24-Jul-2019 14:45

Weather Release:    Arrival:

Wind at Release:     Wind at Arrival:

Temp at Release: °    Temp at Arrival: °

Lofts: 85

Birds: 389

Clocked: 384

Good Luck to Everyone!
Drops Pos Breeder Pigeon Name Color Sex Ent Arrival Speed To Win Eligible RaceAvg Speed
1 Michael Groe - CA 0058-AU19-JEDD 653 BB H 1 15:08:13.00 758.076 00:00:00 Yes
2 Daniel Chang - CA 10771-AU19-JEDD BC H 1 15:08:13.10 758.022 00:00:00 Yes
3 Irma Derrick - CA 15844-AU19-JEDD DC H 1 15:09:00.10 733.282 00:00:47 Yes
4 Mike Belus - CA 0706-AU19-BPRC BBSP H 1 15:11:05.80 674.416 00:02:53 Yes
5 J. Smith & U. Ebright - CA 29513-AU19-JEDD BB H 1 15:11:06.30 674.200 00:02:53 Yes
6 B.C. Weaver - FL 209933-AU19-ARPU ECAILLE DE LIMBOURG BC C 1 15:11:29.60 664.318 00:03:17 Yes
7 A P C Loft - TX 19347-AU19-APC BB H 1 15:15:23.50 579.106 00:07:11 Yes
8 Ron Pairan - OH 0462-AU19-LFO BB H 1 15:16:15.40 563.080 00:08:02 Yes
9 Burrill Family Loft - TX 14532-AU19-AA BC H 1 15:16:21.20 561.344 00:08:08 Yes
10 De La O -Lopez - CA 9057-AU19-COOK BB H 1 15:17:30.20 541.483 00:09:17 Yes
11 J. Smith & U. Ebright - CA 29511-AU19-JEDD BB H 2 15:19:15.70 513.694 00:11:03 Yes
12 Barry Venn - WY 63035-AU19-ARPU SIL H 1 15:20:32.00 495.310 00:12:19 Yes
13 Mesopotamia Syndicate - MN 11414-AU19-ARPU BB H 1 15:20:50.60 491.026 00:12:38 Yes
14 Luis Gomez Loft - CA 0914-AU19-PAL BC H 1 15:21:05.00 487.760 00:12:52 Yes
15 A P C Loft - TX 19344-AU19-APC BB H 2 15:21:38.20 480.393 00:13:25 Yes
16 Mike Belus - CA 0703-AU19-BPRC BC H 2 15:22:29.20 469.500 00:14:16 Yes
17 J. Smith & U. Ebright - CA 29512-AU19-JEDD BB H 3 15:22:51.20 464.952 00:14:38 Yes
18 Missiles Castro - AZ 24014-AU19-MISS BB H 1 15:23:38.80 455.408 00:15:26 Yes
19 Jenkins Racing - CA 15391-AU19-JEDD BBPD H 1 15:23:47.80 453.647 00:15:35 Yes
20 Humberto Munoz - EM 24972-AU19-MEX BBSP H 1 15:24:36.50 444.351 00:16:23 Yes
21 Burrill Family Loft - TX 14529-AU19-AA BB H 2 15:25:29.20 434.711 00:17:16 Yes
22 Von Doss - AZ 0011-AU19-ARZ DC H 1 15:26:30.20 424.062 00:18:17 Yes
23 Ron Pairan - OH 0455-AU19-LFO BC H 2 15:27:26.70 414.654 00:19:14 Yes
24 J. Smith & U. Ebright - CA 29510-AU19-JEDD DC H 4 15:27:50.50 410.815 00:19:37 Yes
25 Tim Brandon - CA 15806-AU19-JEDD DC H 1 15:29:56.50 391.619 00:21:43 Yes
26 Tim Brandon - CA 3871-AU19-HP BB H 2 15:30:54.40 383.387 00:22:41 Yes
27 Crescendo Loft - NM 4746-AU19-VK BB H 1 15:31:30.20 378.467 00:23:17 Yes
28 Dehesa Valley Classic - CA 19683-AU19-DEHE 927/12608 BB H 1 15:32:10.70 373.053 00:23:58 Yes
29 Dan Lionello - CA 0414-AU19-SB BB H 1 15:34:50.50 353.118 00:26:38 Yes
30 Venn Kids - WY 63037-AU19-ARPU H 1 15:40:22.10 317.871 00:32:09 Yes
31 J & M Partridge Loft - CA 1793-AU19-PASO BB H 1 15:40:29.60 317.155 00:32:17 Yes
32 Mike Kelly - CA 3345-AU19-ARC BB H 1 15:40:53.30 314.914 00:32:40 Yes
33 Thormod/Blankenship - NV 29384-AU19-AA BC H 1 15:40:56.80 314.585 00:32:44 Yes
34 J. Smith & U. Ebright - CA 29514-AU19-JEDD BB H 5 15:42:48.60 304.446 00:34:36 Yes
35 Mike Belus - CA 0702-AU19-BPRC RC H 3 15:43:05.10 303.004 00:34:52 Yes
36 A P C Loft - TX 19331-AU19-APC BB H 3 15:44:20.80 296.563 00:36:08 Yes
37 Avenino Castellanos - CA 0309-AU19-HAN DC H 1 15:45:09.80 292.537 00:36:57 Yes
38 Venn Kids - WY 63038-AU19-ARPU RC H 2 15:45:29.10 290.981 00:37:16 Yes
39 Utaz Team - UT 9388-AU19-SLI BB H 1 15:48:37.20 276.643 00:40:24 Yes
40 Mike Belus - CA 0701-AU19-BPRC RC H 4 15:51:56.50 262.915 00:43:44 Yes
41 Mike Belus - CA 0704-AU19-BPRC BC H 5 15:52:07.10 262.223 00:43:54 Yes
42 C & D Loft - CA 0053-AU19-PAL BC H 1 15:52:41.30 260.015 00:44:28 Yes
43 Sin City Classic - NV 19478-AU19-JEDD BB H 1 15:53:22.10 257.429 00:45:09 Yes
44 Sam Fikhman - CA 0739-AU19-MHL BB H 1 15:54:09.50 254.488 00:45:57 Yes
45 Mc Knight & Mellinger - CA 1319-AU19-JEDD BB H 1 15:55:27.90 249.769 00:47:15 Yes
46 Two-Be-Won - NV 19002-AU19-TBW 18124-109936 BC H 1 15:59:02.40 237.709 00:50:49 Yes
47 Milestone Loft - CA 1293-AU19-SD BBSP H 1 15:59:15.70 237.000 00:51:03 Yes
48 Burrill Family Loft - TX 14530-AU19-AA BB H 3 15:59:48.10 235.289 00:51:35 Yes
49 Any Given Day-Quest - TX 19050-AU19-AGD BB H 1 16:01:15.70 230.784 00:53:03 Yes
50 Tom Cano Family - CA 0937-AU19-SD BB H 1 16:01:25.00 230.316 00:53:12 Yes
51 Hawaiian Express - CA 0006-AU19-HE BC H 1 16:03:32.80 224.071 00:55:20 Yes
52 Irma Derrick - CA 15845-AU19-JEDD BB H 2 16:04:37.70 221.027 00:56:25 Yes
53 Two-Be-Won - NV 19012-AU19-TBW 15017-15229 BBWF H 2 16:05:04.00 219.817 00:56:51 Yes
54 Any Given Day-Quest - TX 19040-AU19-AGD BB H 2 16:07:50.80 212.441 00:59:38 Yes
55 Milestone Loft - CA 27725-AU19-JEDD BB H 2 16:08:38.30 210.430 01:00:25 Yes
56 Mesopotamia Syndicate - MN 11346-AU19-ARPU BC H 2 16:09:14.80 208.910 01:01:02 Yes
57 Irma Derrick - CA 15835-AU19-JEDD BB H 3 16:10:11.20 206.605 01:01:58 Yes
58 Michael Groe - CA 0059-AU19-JEDD 653 BBWF H 2 16:10:33.20 205.720 01:02:20 Yes
59 Barry Venn - WY 63040-AU19-ARPU BB H 2 16:10:41.10 205.404 01:02:28 Yes
60 De La O -Lopez - CA 9128-AU19-COOK BBWF H 2 16:11:06.40 204.398 01:02:53 Yes
61 Genesis Syndicate Loft - AZ 0108-AU19-GENS BB H 1 16:14:36.40 196.414 01:06:23 Yes
62 Hugo Avila Loft - CA 1505-AU19-SD RC H 1 16:14:37.80 196.363 01:06:25 Yes
63 Dehesa Valley Classic - CA 1671-AU19-SD 42106/14900 BB H 2 16:14:38.60 196.334 01:06:26 Yes
64 El Dorado Lofts Canada - BC 1942-CU19-CU BB H 1 16:14:38.70 196.330 01:06:26 Yes
64 Genesis Syndicate Loft - AZ 0879-AU19-GENS WHT H 2 16:14:38.70 196.330 01:06:26 Yes
66 El Dorado Lofts Canada - BC 1975-CU19-CU BBWF H 2 16:14:39.60 196.297 01:06:27 Yes
67 Two-Be-Won - NV 19025-AU19-TBW 16002-13009 BB H 3 16:14:40.20 196.275 01:06:27 Yes
68 Daniel Chang - CA 10774-AU19-JEDD BC H 2 16:14:42.20 196.202 01:06:29 Yes
68 Utaz Team - UT 1158-AU19-DUTC BB H 2 16:14:42.20 196.202 01:06:29 Yes
70 Ron Pairan - OH 0447-AU19-LFO BBSP H 3 16:14:42.50 196.191 01:06:30 Yes
71 De La O -Lopez - CA 9042-AU19-COOK BC H 3 16:14:45.20 196.093 01:06:32 Yes
72 Kessler Family Loft - OR 0046-AU19-NRK BB H 1 16:14:52.90 195.813 01:06:40 Yes
73 Tim Brandon - CA 3872-AU19-HP BBWF H 3 16:14:55.50 195.719 01:06:42 Yes
74 Sam Fikhman - CA 0740-AU19-MHL BBWF H 2 16:15:24.80 194.662 01:07:12 Yes
75 Mike Belus - CA 0708-AU19-BPRC BC H 6 16:17:05.50 191.114 01:08:52 Yes
76 Humberto Munoz - EM 24979-MX19-MEX BB H 2 16:17:28.90 190.308 01:09:16 Yes
77 Mike Kelly - CA 3344-AU19-ARC BBWF H 2 16:21:49.90 181.759 01:13:37 Yes
78 Mc Knight & Mellinger - CA 0736-AU19-JEDD DCWF H 2 16:24:10.40 177.467 01:15:57 Yes
79 Quest Syndicate - TX 9174-AU19-QS BBSP H 1 16:24:23.90 177.065 01:16:11 Yes
80 Milestone Loft - CA 27704-AU19-JEDD BB H 3 16:25:51.90 174.491 01:17:39 Yes
81 Barry Venn - WY 63036-AU19-ARPU SIL H 3 16:25:53.80 174.436 01:17:41 Yes
82 Milestone Loft - CA 27701-AU19-JEDD BB H 4 16:27:08.40 172.313 01:18:55 Yes
83 Sonic Loft - CA 63928-IF19-E BB H 1 16:28:04.20 170.758 01:19:51 Yes
84 Kessler Family Loft - OR 0044-AU19-NRK BB H 2 16:28:37.00 169.857 01:20:24 Yes
85 Tom Cano Family - CA 0949-AU19-SD BB H 2 16:29:54.90 167.755 01:21:42 Yes
86 Crescendo Loft - NM 4744-AU19-VK BB H 2 16:31:02.40 165.975 01:22:49 Yes
87 O & L De Vries - ON 3084-AU19-0L BB H 1 16:32:03.90 164.386 01:23:51 Yes
88 Hugo Avila Loft - CA 1517-AU19-SD BBWF H 2 16:32:28.90 163.749 01:24:16 Yes
89 C L & Patty Gage - TX 0665-AU19-DEN BCWF H 1 16:32:56.10 163.061 01:24:43 Yes
90 J. Smith & U. Ebright - CA 0067-AU19-JSRL BB H 6 16:33:52.00 161.666 01:25:39 Yes
91 El Dorado Lofts Canada - BC 1978-CU19-CU BB H 3 16:35:04.80 159.884 01:26:52 Yes
92 Humberto Munoz - EM 24975-MX19-MEX SIL H 3 16:35:12.40 159.700 01:26:59 Yes
93 Sin City Classic - NV 19457-AU19-JEDD BCWF H 2 16:36:35.90 157.708 01:28:23 Yes
94 Dan & Greg Coury - AZ 14951-AU19-JEDD BCSP H 1 16:36:53.30 157.300 01:28:40 Yes
95 3 Girls From Mexico - NV 4906-AU19-VITA DCWF H 1 16:39:37.80 153.537 01:31:25 Yes
96 Hi-Cal Connection - CA 0837-AU19-HICA BB H 1 16:41:56.50 150.502 01:33:44 Yes
97 Estes Loft - ID 6920-AU19-VK BB H 1 16:42:12.20 150.166 01:33:59 Yes
98 Mc Knight & Mellinger - CA 0738-AU19-JEDD BB H 3 16:44:27.70 147.328 01:36:15 Yes
99 O & L De Vries - ON 3027-CU19-OL BB H 2 16:46:49.70 144.466 01:38:37 Yes
100 Dan & Greg Coury - AZ 15910-AU19-JEDD BB H 2 16:50:27.50 140.286 01:42:14 Yes

There are 393 bird records

Note: These Race Results are unofficial and subject to change until verified by the Race Committee and declared final.